Location: Nairn
(57.5833°N, 3.8667°W)
Time: 19:21:59
(UTC+00:00)

CZ-4C R/B - Pass Details

Date: 07 August 2020
Orbit: 465 x 635 km, 98.0° (Epoch: 24 September)

Event Time Altitude Azimuth Distance (km) Brightness Sun altitude
Exits shadow 01:04:52 13° 131° (SE) 1,434 5.2 -15.5°
Maximum altitude 01:07:37 38° 65° (ENE) 739 4.3 -15.5°
Drops below altitude 10° 01:10:59 10° 356° (N) 1,683 7.0 -15.4°
Sets 01:13:10 0° 348° (NNW) 2,591 8.0 -15.3°
